作者hicker (夏天脑袋容易热当机....)
看板Baseball
标题[先发] CPBL #136 Lamigo VS 义大 @ 澄清湖
时间Sun Jul 12 16:23:51 2015
Lamigo桃猿
余德龙 詹智尧 蔡建伟 义大犀牛 裁判
1
余德龙 \
高国辉 林旺卫 张建铭 / 1
林旺卫 主 吴家维
2
林智平 \
林智胜 郭严文 / 2
张建铭 一 张展荣
3
林智胜 \
方玄宗 陈凯伦 / 3
高国辉 二 王俊宏
4
林泓育 林智平 梁家荣 4
林益全 三 尤志钦
5
郭严文 林宗男 林益全 5
阳冠威
6
蔡建伟 \
王溢正 / 6
林宗男
7
梁家荣 DH \
蔡明晋 / DH 7
林琨笙
8
刘时豪 林泓育 \ /
阳冠威 8
方玄宗
9
詹智尧 \ / 9
陈凯伦
刘时豪 主播台
纬来育乐台&精采台
林琨笙 纬来 杨正磊 陈瑞昌
ELTA育乐台 三台直播 ELTA 吴昇府 郑景益
场 战绩 局数 ERA K ER 场 战绩 局数 ERA K ER
王溢正 全季 14 9W3L 80.2 5.02 52 45
蔡明晋 全季 10 3W1L 28.2 5.97 15 19
vs
犀 4 3W0L 28.0 3.54 15 11 vs
猿 2 1W1L 10.0 5.40 4 6
--
※ 发信站: 批踢踢实业坊(ptt.cc), 来自: 36.229.217.73
※ 文章网址: https://webptt.com/cn.aspx?n=bbs/Baseball/M.1436689433.A.900.html
1F:→ william7713: 男哥!!!! 07/12 16:24
2F:→ AndrewChuang: LM的打线越来越惨 07/12 16:24
3F:推 luigilee: 终於死心了 07/12 16:24
4F:→ jjjjjs: 皇上 还 不快 跪 07/12 16:25
5F:推 laihom0808: LM一堆伤兵 07/12 16:25
6F:→ Allen524: 我以为义大输不怕咧..但是.达鸿还是没的先发.莫名奇妙让 07/12 16:26
7F:推 kev: 借转犀牛版~ 感恩~ 07/12 16:26
8F:→ Allen524: 一棒 07/12 16:26
※ kev:转录至看板 Rhinos 07/12 16:26
9F:推 liauyiru: 义大内野变动真大 07/12 16:26
10F:推 Y1999: 猴子要不是板凳好 你会看到半条二军打线 07/12 16:27
11F:推 love0120xxx: 524... 07/12 16:27
12F:→ alwaysstrong: LM下半季惯用的练兵打线又来啦XDDD 07/12 16:27
13F:→ sawkuanwoo: eda终于受不了阳了 07/12 16:27
14F:推 NTJL: LM打线 前四右打後五左打XD 07/12 16:27
15F:→ NTJL: 不是练兵 是伤的伤....现在这个已经算阵容中的一军了 07/12 16:28
16F:→ sawkuanwoo: lm宁愿ss给ug8,让梁去1b,好个ug8 07/12 16:29
17F:推 sharkhead: 哪里练了?这没弱棒啊说真的 07/12 16:29
18F:推 ding0214: 你秀怎没先发? 07/12 16:29
19F:推 liauyiru: 不是只少秀 07/12 16:30
20F:推 hu610346: 天下宗男!!!!!!!!!!!!!!!! 07/12 16:30
21F:→ Y1999: 猴子这先发再受伤 要嘛拉工具人 不然就拉二军了... 07/12 16:30
22F:推 goodevening: 我秀是伤了吗?? 07/12 16:30
23F:→ aa22456222: 陈俊秀表示:...... 07/12 16:30
24F:→ sharkhead: 秀不舒服 07/12 16:30
25F:推 sawkuanwoo: 3阳只能卡dh了,3b练不起来,c也轮不到他,惨 07/12 16:30
26F:→ hu610346: 还是要战一下 神全DH数据比较强大 阳炮一垒数据也很威XD 07/12 16:31
27F:推 NTJL: 俊秀不舒服阿 休兵一日 07/12 16:31
28F:→ goodevening: 6棒王肩本来想说有点惨,但看到eda六棒我就释怀了... 07/12 16:31
29F:推 jenchieh5: 男哥回来主持正义了 07/12 16:31
30F:推 muching: 但阳的打击表现要扛DH实在也不大够格。 07/12 16:32
31F:→ ding0214: 恩恩~不舒服就没办法 07/12 16:33
32F:推 FannWong: 男哥回来失误先+1 07/12 16:34
33F:→ aa22456222: 除了梁 其他都站先发很久了吧 07/12 16:35
34F:推 Ec73Iwai: 天下宗男!!!!!!!!!!!!!!!! 07/12 16:37
35F:→ icecold52: 看起来昨天阳冠威失误 就不敢给他守备了 换天下宗男 XD 07/12 16:38
36F:推 bigsun0709: 下半季本来就养伤阿...现在第二名离我们还有7场胜差 07/12 16:39
37F:→ nakayamayyt: 男哥总算先发了 07/12 16:41
38F:推 GAIEGAIE: 不就跟去年一样 有点不舒服就休息 07/12 16:41
39F:→ sungastill: 今天犀牛自杀棒至少三棒 = = 07/12 16:41
40F:推 QQaka: 不让阳练3B?? EDA真的短视近利 07/12 16:43
41F:→ laihom0808: LM哪里在练兵..就一堆伤兵阿 07/12 16:44
42F:推 sharkhead: 担心什麽?姊姊还没丢骰子 07/12 16:44
43F:推 tina1007: 咖啡又不见了 07/12 16:44
44F:推 ji31g42go61: 不是下半季本来就养伤,是有伤本来就该养啊......。 07/12 16:44
45F:推 Allen524: 也就少一个陈俊秀而已吧..哪来的一堆伤兵? 07/12 16:45
46F:→ tina1007: 524你.... 07/12 16:45
47F:推 goodevening: lamigo一堆伤兵尤其是外野 07/12 16:45
48F:推 laihom0808: 524你........ 07/12 16:46
49F:推 LaMaAldridge: 蓝寅伦 yoyo 小飞机 明明就一堆 外野都没人了 07/12 16:46
50F:推 hu610346: 看猿迷说话还以为几乎都是伤兵....结果也只有一个梁.. 07/12 16:46
51F:→ icecold52: 酸酸:不管啦!LM先发阵容少一个就是练兵! 07/12 16:46
52F:推 Nobita: 未看先猜男哥MVP 07/12 16:47
53F:→ hu610346: 也就只有蔡建伟和梁家龙是非主力吧.. 07/12 16:47
54F:→ linhsiuwei: 你秀受伤了吗 07/12 16:47
55F:推 ji31g42go61: 不能因为没注意就当作没伤兵吧?遮起眼还能看不到人呢 07/12 16:48
56F:推 fewmaster: 余德龙如果小飞机没伤也轮不到先发啊 07/12 16:50
57F:推 BellamyLee: 我猿就等我融了 07/12 16:50
58F:→ yayakaka: 现在感觉义大不管怎麽打都会输 07/12 16:50
59F:推 cht211: 男哥!!! 07/12 16:52
60F:推 goodevening: 蔡建伟是第五号外野手,今年却一直先发,就知道伤多惨 07/12 16:53
61F:推 gogogo123: 四大本土先发 07/12 16:53
62F:推 tiger8019622: 梁是3B出身的 SS好像都没站过 07/12 16:54
63F:推 aa97531aa: 看哪只土投先爆 07/12 16:54
64F:推 Dawei1165: 29真的是很纤细= = 一直小伤痛不断... 07/12 16:56
65F:推 dwndwn: 梁家荣守备位置是3B跟1B 拿林智胜来酸很好笑 07/12 16:56
66F:→ goodevening: 梁一直都是守3b和1b去ss干吗?? 07/12 16:56
67F:推 m85037: 大义和唐基XDD 07/12 16:57
68F:→ icecold52: 唐基居然会侧翻 好强 XDDD 07/12 16:57
69F:→ reborn0301: 不敢练阳3B了喔 07/12 16:58
※ 编辑: hicker (36.229.217.73), 07/12/2015 17:02:44
70F:推 dunhiller: 男哥! 07/12 17:03
※ 编辑: hicker (36.229.217.73), 07/12/2015 17:05:55
71F:推 sonnyissonny: 我最爱的正磊主播 >////< 07/12 17:07
72F:推 xuptjo: 凯文也只剩13X? 07/12 17:09
73F:推 wb7346: 藤川明晋 07/12 17:09
74F:推 laihom0808: 投一休四还这麽威 07/12 17:10
75F:推 pablo1126: 其实很心疼蔡喵 07/12 17:10
76F:推 dunhiller: k 07/12 17:17
77F:推 shintz: !!!! 07/12 17:20
78F:推 yesno41: HR 07/12 17:20
79F:推 syoritoo: ... 07/12 17:20
80F:推 EdisonDeng: !!!!!!!!!!!!HR 07/12 17:20
81F:推 pdr666333: 炸炸Y 07/12 17:20
82F:推 dunhiller: 没人抢XD 07/12 17:20
83F:推 lichun1228: HR~~~~~~~~~~~ 07/12 17:20
84F:推 jj1004: 正式宣布 义大要参战了..... 07/12 17:21
85F:→ cdpicker: ELTA才说高国辉低潮太久 就来发HR了 07/12 17:21
86F:推 carry51020: 辉辉好棒 07/12 17:21
87F:推 phix: 红中:我们不需要 07/12 17:21
88F:推 m85037: 平射炮 07/12 17:22
89F:推 Qiaodi: 高国辉真的很可怕~全垒打跟喝水一样! 07/12 17:22
90F:→ jack482653: 太可怕了啦 07/12 17:22
91F:推 a1len: 平射左外野 07/12 17:23
92F:推 whshsquall: 看转播还以为国辉身体不太舒服@@结果就HR了 07/12 17:23
93F:推 straight0711: 连两天拉肚子 07/12 17:24
94F:推 LaMaAldridge: 小叶笑惹 07/12 17:25
95F:推 muching: 阻杀 07/12 17:26
96F:推 tomashsue: 林补笑开怀 07/12 17:26
97F:推 tw88: 奥抖~ 07/12 17:26
98F:推 MoMobull: 林捕和叶总都笑得好灿烂 07/12 17:27
99F:→ Abric: 帅 07/12 17:28
100F:推 tomashsue: 方反应快,接到不规则弹跳 07/12 17:28
101F:推 Abric: 火哥 07/12 17:30
102F:推 tomashsue: Cpbl又来了XD 07/12 17:30
103F:推 globekiller: kiss cam亲好久XD 07/12 17:31
104F:推 sungastill: XDDDDD 其实KISS CAM看多蛮有趣的 不过小三就难过惹 07/12 17:31
105F:推 tw88: 是男哥!!!!!!!!!!!!!!!!!!!!!!!!!!!!!!!!!!!!!!!! 07/12 17:32
106F:推 goodevening: 大家预估打击战,结果是投手战... 07/12 17:32
107F:→ tw88: 内滚out 07/12 17:32
108F:推 ivan609: 多给你投一颗 还是BB 07/12 17:34
109F:→ icecold52: 姊姊要开始丢骰子了吗? 坏球多了 07/12 17:37
110F:推 cpcpao: 叮当威武 07/12 17:40
111F:推 muching: 高多一个E 07/12 17:40
112F:→ icecold52: 高国辉踢球 XD 07/12 17:40
113F:推 ivan609: 60号居然跑回来了... 07/12 17:42
114F:推 tw88: WW送垒包qq 07/12 17:43
115F:→ ivan609: 果然还是需要钓虾 07/12 17:43
116F:推 SmallPChan: 超腿的 07/12 17:43
117F:→ muching: WW弱肩......唉 07/12 17:43
118F:推 jj1004: 选钓虾没错阿 还不如不要传 07/12 17:43
119F:推 arthur85422: 60跑垒好有喜感xDDDDD 07/12 17:43
120F:推 yyc1217: 选钓虾是对的 07/12 17:43
121F:→ sungastill: ..... 07/12 17:43
122F:推 tomashsue: 漂亮,凯伦守的好 07/12 17:43
123F:推 a1len: WW臂力不行就不要传本垒了... 白送垒包 07/12 17:44
124F:推 workhero: 没肩还乱传本垒 07/12 17:44
125F:推 MVM: 旺卫每次都传到很奇怪的地方 07/12 17:44
126F:→ a1len: 选钓虾WW还是要用啊...不如好好用脑 用策略阻止进垒 07/12 17:45
127F:推 ivan609: KKKKKKKKKKKKKKKKKKKKKK 07/12 17:46
128F:推 tomashsue: 旺旺传球真的很惨,他手臂应该也有伤吧 07/12 17:46
129F:推 ivan609: 凯伦看完暗号後还笑了一下 XDD 07/12 17:48
130F:推 goodevening: 开了三次刀,臂力应该是回不来了 07/12 17:50
131F:推 tomashsue: 胡老板受伤还没好吗? 07/12 17:52
132F:→ sharkhead: 你老师咧 这哪里坏了 07/12 17:52
133F:→ tomashsue: 小叮当好好笑 07/12 17:52
134F:推 yyc1217: 又想当主审了XD 07/12 17:53
135F:推 tw88: 60号感觉在祈祷主审发声xd 07/12 17:53
136F:推 tomashsue: 米糕休息室感觉都在看喜剧演员接球,超好笑 07/12 17:54
137F:→ icecold52: 姊姊3局刚好用45球 标准值啊 XDDD 07/12 17:55
138F:推 yyc1217: go go power ranger~ 07/12 17:57
139F:推 a1len: 义大特摄战队喔XDD 07/12 17:57
140F:推 goodevening: 为何啦啦队不是面向观众跳?? 07/12 18:00
141F:推 river543: 请问我秀呢 07/12 18:03
142F:推 s638450: 秀今天好像不舒服 07/12 18:07
143F:推 lichun1228: 这守备... 07/12 18:07
144F:推 tomashsue: Ug8,谢谢您 07/12 18:07
145F:推 ivan609: 内安XD 07/12 18:08
146F:推 TML5566: UG8 要来个道歉野球了吗? 07/12 18:08
147F:推 murray: 我秀膝盖不舒服 07/12 18:08
148F:→ jack482653: = = 07/12 18:08
149F:推 SmallPChan: 油即罢 07/12 18:08
150F:推 Qiaodi: 传的软趴趴的... 07/12 18:08
151F:推 chien955401: 传的跟屎一样也记安打... 07/12 18:08
152F:推 a8330028: 明明就E 07/12 18:09
153F:推 okplaymayday: 神全以前会卷袖子吗..... 07/12 18:09
154F:推 murray: UG8 你 XDDDDDD 07/12 18:10
155F:推 goodhike: EEEEEEEEEE 07/12 18:10
156F:推 ivan609: UG8 再次谢谢你XDD 07/12 18:10
157F:嘘 LaMaAldridge: 这守备实在.... 07/12 18:10
158F:推 lichun1228: 神全为何可以跑这麽慢? 看起来又不是很胖 07/12 18:10
159F:→ aa97531aa: 学泰山卷袖子? 07/12 18:10
160F:推 chien955401: 又一次... 07/12 18:10
161F:推 muching: 神全慢跑竟然还闪过DP ... 07/12 18:10
162F:推 terry66: 这跑速 有点扯 07/12 18:10
163F:嘘 TML5566: UG8 又来了 07/12 18:10
164F:推 SmallPChan: 又是ug8 07/12 18:10
165F:推 tomashsue: 神全你可以再跑慢一点 07/12 18:11
166F:推 tw88: 神全没冲qq 07/12 18:11
167F:→ jack482653: .................. 07/12 18:11
168F:推 s638450: 哪有慢跑还可以跑很快的 07/12 18:11
169F:推 shintz: 神全:?! 07/12 18:11
170F:推 shaotsung: 梁还太嫩 07/12 18:11
171F:推 yyc1217: 等一下要道歉了吗 07/12 18:11
172F:推 app543: 大师兄连放两镖 07/12 18:11
173F:推 Lackland: 缴学费罗 07/12 18:11
174F:推 philxiao: 林智胜你该认真考虑轮休守一垒了............ 07/12 18:11
175F:推 Qiaodi: 大师兄... 07/12 18:11
176F:推 a8330028: 卖闹了啦 07/12 18:11
177F:推 thirdblue: ug8道歉野球集气中 07/12 18:11
178F:→ philxiao: 不是要你离开游击,而是守一垒当做轮休啊 07/12 18:12
179F:→ a8330028: 1B我还以为是鬼脚 也会怕球 07/12 18:12
180F:推 jajaja123: 游击霸很抢戏 07/12 18:12
181F:→ muching: 阳冠威除了选球之外,另一个问题是contact不好 07/12 18:13
182F:推 tomashsue: 冠威你要看球跟球啊,乱挥怎麽打的好 07/12 18:13
183F:推 whshsquall: 大师兄手软 07/12 18:13
184F:推 yyc1217: 阳的选球还是很烂... 07/12 18:14
185F:推 coolvoice: 阳凭什麽打DH 07/12 18:15
186F:推 tomashsue: 因为义大有炮瓦的选手没了 07/12 18:16
187F:推 BellamyLee: 我猿自杀连星 XD 07/12 18:17
188F:推 m85037: 这坏球 07/12 18:19
189F:推 adam7148: 2B 07/12 18:19
190F:→ icecold52: 小叮当今天两支二垒安打 这你敢信?!!!!!! XDDDDD 07/12 18:19
191F:推 GentleJena: 60号打2B你敢信 07/12 18:19
192F:→ lolucky531: 60号!! 07/12 18:19
193F:嘘 HAPPYDOLL: 这好球带… 07/12 18:19
194F:推 lichun1228: 刘时豪是不是跑比林益全快阿??????? 07/12 18:19
195F:推 philxiao: 见鬼了,小叮当竟然跑得到XDDDDD 07/12 18:19
196F:推 allenhome23: 快腿60好可爱 07/12 18:20
197F:推 BellamyLee: 短腿哥 07/12 18:20
198F:推 NTJL: 很奋力的小短腿 07/12 18:20
199F:推 a8330028: 这也能送垒包 07/12 18:20
200F:推 muching: 我也觉得60号的脚程比神全快,而且可能不只一点... 07/12 18:20
201F:→ BellamyLee: 比神拳快0.38秒 07/12 18:20
202F:→ philxiao: 看他跑步腿明明动很快,但是速度却很普通XDDDDD 07/12 18:21
203F:推 lolucky531: 全身的肉在抖动XD 07/12 18:21
204F:推 dunhiller: 60号的胸部一直晃.... 07/12 18:21
205F:→ goodevening: 认不认真跑得差别吧 07/12 18:21
206F:→ philxiao: 不过跑得很拼命是真的 07/12 18:21
207F:推 ivan609: 下庄! 07/12 18:22
208F:推 a8330028: 差不多该炸了 07/12 18:22
209F:推 yyc1217: 为什麽要盯着60号的胸部 07/12 18:23
210F:推 jj1004: 投1休4被骂 结果投比之前好..... 07/12 18:23
211F:→ tw88: 男哥要上了 加油加油加油!!! 07/12 18:24
212F:→ tw88: 哇勒 上一局我MISS了 07/12 18:25
213F:→ theropod: 改爲安打?现在金童球队换人了吗? 07/12 18:26
214F:推 muching: 小皇帝的准备动作在那绕啊绕的,颇有巨炮架势 XD 07/12 18:30
215F:→ tw88: 小队长xddd 07/12 18:31
216F:推 ivan609: XDDDDD 07/12 18:32
217F:推 wow999: XDDDDDDDDDD 07/12 18:32
218F:→ thirdblue: XDDDDDDDDDD 07/12 18:32
219F:→ werger: 要夹多久 红龟逆 07/12 18:32
220F:推 okplaymayday: .....我不知道从哪里吐槽。 07/12 18:32
221F:嘘 hbk20491: 低级判断 07/12 18:32
222F:推 yankees733: 小皇帝使出天龙八步 07/12 18:32
223F:→ tw88: 真的很神!!!!60号!!!!!!! 07/12 18:32
224F:推 Gamer1028: 米糕的夹杀真的很烂 不是第一次了 07/12 18:32
225F:推 philxiao: XDDDDD这个好笑XDDDDD 07/12 18:33
226F:推 yyc1217: XDDDDDDDD 07/12 18:33
227F:推 lml99: 方:跑到没力了还没死 07/12 18:33
228F:推 Cynthia17: XDDDD 07/12 18:33
229F:推 lolucky531: 这夹的...吓死人 07/12 18:33
230F:推 goodevening: 捕手都来补了 07/12 18:33
231F:推 corner0111: XDDDDDDDDDDDDDDDDDDD 夹不死你 07/12 18:33
232F:推 jj1004: 差一点还活了XDDD 笑死 07/12 18:33
233F:推 NTJL: 感觉再多逼一点就死了 多传好几次 07/12 18:33
234F:推 arthur85422: 刘时豪xDDDDDDDDDD 07/12 18:33
235F:→ philxiao: 刘时豪动作很正确,无论是补位还是夹杀的跑动 07/12 18:33
236F:推 straight0711: HR 07/12 18:33
237F:推 babaholala: XDDDDDDDDDD好会跑 07/12 18:34
238F:→ okplaymayday: 可以捕手捕一垒时,跑者可以冲撞一垒吗? 07/12 18:34
239F:推 muching: 炸了! 07/12 18:34
240F:推 EdisonDeng: wow HR 07/12 18:34
241F:→ man790810: XDDDDDDDDDDDDDD 07/12 18:34
242F:推 choutenseven: 60号是开了任意门吗 怎麽突然出现在那XDDD 07/12 18:34
243F:推 wow999: HRRRRRRRRRRRRRRR 07/12 18:34
244F:→ tw88: 我犀这两天战术大多gg.... 07/12 18:34
245F:推 cha7919: 少一分 07/12 18:34
246F:推 GentleJena: 少一分 07/12 18:34
247F:→ tw88: 出去啦!!!!!!!!!!!!!!!!!!!!!!!!!!!!!!!!!!! 07/12 18:34
248F:推 RiskSoul: 你敢信 太神啦 07/12 18:34
249F:推 qiet: HR!! XDDDD 07/12 18:34
250F:推 shintz: 穷到只剩hr能得分 07/12 18:34
251F:→ man790810: 得点圈在本垒 07/12 18:34
252F:→ wow999: 穷到剩HR 07/12 18:34
253F:→ tomashsue: 欧巴伦啊! 07/12 18:34
254F:→ jj1004: 我犀真的穷的只剩全垒打阿 为一两场也是靠火哥林威廷... 07/12 18:34
255F:推 yyc1217: 我犀穷得只剩全垒打 07/12 18:34
256F:推 freeclouds: 内角高球 连牛奶可以轰 真的太肉了 07/12 18:35
257F:→ tw88: 凯伦表示不想走战术了啦!!!!! 本季:1 生涯:3 07/12 18:35
258F:→ philxiao: 连续两天 EDA最初两分都是两只Solo HR 07/12 18:35
259F:推 st900278: 这好球? 07/12 18:35
260F:推 hbk20491: 好丑 07/12 18:36
261F:推 straight0711: 今天只有吱吱不靠HR得分 真不合群 07/12 18:37
262F:推 JetYen: 一垒手应该自己跑吧 怎丢给投手 07/12 18:37
263F:推 ivan609: 吱吱连三天被双响 07/12 18:39
264F:推 re159159: 林旺卫看起来手真的有伤,热身时连跟高国辉kgb都丢不到 07/12 18:42
265F:→ devil0915: 今天示好喵吗 07/12 18:42
266F:推 GentleJena: 大师兄开灵气了 07/12 18:43
267F:推 ivan609: 男哥......... 07/12 18:44
268F:推 a1len: 又是三垒手....... 07/12 18:44
269F:推 shintz: 男哥.... 07/12 18:44
270F:嘘 hbk20491: 爱抢别人求 又失误 07/12 18:44
271F:推 dl92114: 义大三垒的日常..... 07/12 18:44
272F:推 m85037: 男哥........ 07/12 18:44
273F:推 martin3621: 男哥!!... 07/12 18:44
274F:→ a1len: 方玄宗都ready了 07/12 18:44
275F:→ ivan609: EDA三垒 谁守谁中邪 07/12 18:44
276F:推 yyc1217: 冠威又是你!!! 嗯? 07/12 18:44
277F:→ leborn315: 这样都给安打,, 07/12 18:44
278F:推 nomo1616: 小胖应援曲真的很好听 百听不腻 07/12 18:45
279F:→ yyc1217: 失误後该不会又要失分了 07/12 18:45
280F:推 NTJL: 大师兄真的很会盗 07/12 18:45
281F:推 aftermathx: 从威拉斯走後谁守都会中邪 07/12 18:46
282F:→ zaq1qwer: 阿全NP!! 07/12 18:47
283F:推 kress: 神全这几天怎麽了= = 07/12 18:47
284F:推 e7660239: E全好猛 07/12 18:47
285F:推 yankees733: 林益全NP 07/12 18:47
286F:推 cpcpao: 猿文专用布阵 07/12 18:47
287F:→ EdisonDeng: 这是神全??? 07/12 18:47
288F:推 kuoiann: E全 这你敢信??? 07/12 18:47
289F:推 whshsquall: 神全竟然跑的到 XD 07/12 18:47
290F:推 MoMobull: E全最近都不E全了 07/12 18:47
291F:推 shintz: [闲聊] 神全今天守备怎麽了? 07/12 18:47
292F:推 tetsu0401: 我全!!!! 07/12 18:47
293F:推 devil0915: 没有压力的神全 = 神 07/12 18:47
294F:→ icecold52: 林益全是怎样啦 面对郭严文守备就神了 选择性守备啊!!! 07/12 18:47
295F:推 jj1004: 林益全跟郭严文有仇吗XDDD 07/12 18:47
296F:推 NTJL: 郭猿文表示: 07/12 18:47
297F:推 NowQmmmmmmmm: 以前的E全都是弯腰球从旁边滚过去..今天怎麽了 07/12 18:47
298F:推 m85037: 益全NP 07/12 18:47
299F:推 tw88: 神全站位满分!!!!np~~~~ 07/12 18:47
300F:推 yyc1217: 神全到底怎麽惹 07/12 18:47
301F:推 hu610346: 林益全这几天到底怎麽了....................... 07/12 18:47
302F:→ zaq1qwer: 益全专门NP 超级喜欢XDDDDDDDDDDDDDD 07/12 18:47
303F:→ philxiao: 神拳专杀严文,几乎一模一样的球 07/12 18:47
304F:推 HAPPYDOLL: 有E男就没E全啦 大家说对噗对 07/12 18:48
305F:推 r622123: 神全表示三垒我可以 07/12 18:48
306F:→ yyc1217: 郭严文的天敌 07/12 18:48
307F:→ tw88: 唐基攻读生换人了齁!!!xdd 07/12 18:48
308F:→ NTJL: 神全秀守备要转三垒了吗 07/12 18:48
309F:推 straight0711: 每次都打到神全布阵 07/12 18:49
310F:→ m85037: 唐基XDDDDDDDD 07/12 18:49
311F:推 whshsquall: 唐基今天很high阿 07/12 18:49
312F:推 liitracy: 安打 07/12 18:49
313F:→ NTJL: 义大吉祥物真的很有梗 07/12 18:49
314F:推 shintz: 这局要得分了吗? 07/12 18:49
315F:→ william7713: 再来一发吧 07/12 18:50
316F:推 muching: 国辉猛打赏 07/12 18:50
317F:→ whshsquall: 国辉状况回稳了吗 猛打赏了 07/12 18:50
318F:→ EdisonDeng: 我辉威武! 07/12 18:50
319F:推 easybaby: 三分球预备~~~ 07/12 18:50
320F:→ kress: 三分buff准备中 07/12 18:50
321F:→ shintz: 三分球stand by 07/12 18:50
322F:推 tw88: 状况满分!!!!!我犀威武!!!! 07/12 18:51
323F:推 bojatom: 看唐基这麽灵活 以後三垒给唐基守守看好了 07/12 18:51
324F:→ william7713: 两球两安 07/12 18:51
325F:推 twnc1006: 先猜dp 07/12 18:51
326F:→ rock0525: DP全还是三分全....XDDD 07/12 18:51
327F:推 easybaby: DP~~ 07/12 18:53
328F:推 EdisonDeng: 虽 07/12 18:53
329F:推 nopa118: DP全 07/12 18:53
330F:推 GentleJena: DP全 07/12 18:53
331F:→ kress: 真的DP... 07/12 18:53
332F:推 zaq1qwer: DP 好虽XDDDDDDDDDDDDDD 07/12 18:53
333F:→ NowQmmmmmmmm: 不意外 07/12 18:53
334F:推 lichun1228: DP... 07/12 18:53
335F:推 hbk20491: 这是林益全x53? 07/12 18:54
336F:推 sheng514155: 报仇了 07/12 18:54
337F:推 jj1004: 有够衰XDDD 这两人难怪有仇XDD 07/12 18:54
338F:→ muching: 全: 打平飞球就不要说我慢跑了... 07/12 18:54
339F:→ zaq1qwer: 郭严文: 一报还一报报 07/12 18:54
340F:推 twnc1006: 甘 我乱猜的还被我猜中 07/12 18:54
341F:推 philxiao: 报仇XDDDDDDD 07/12 18:54
342F:推 Argosde: 要挑战一场最多DP吗...上ㄧ次隐形dp 07/12 18:54
343F:推 HAPPYDOLL: 有防守就没进攻 07/12 18:54
344F:推 fu456: 超级喜欢:再来啊!!!!!!!!!!!!! 07/12 18:54
345F:→ kress: 有够衰 07/12 18:54
346F:推 thirdblue: 真衰 07/12 18:54
347F:推 shintz: 刚好打给微笑郭 07/12 18:54
348F:→ icecold52: 郭严文还一个 NP 不欠了 XD 07/12 18:54
349F:推 yyc1217: 两个有仇呀!! 07/12 18:54
350F:推 NTJL: 郭严文:亨 我要替我安打报仇! 07/12 18:54
351F:推 matsuiss: 软手全 不意外 07/12 18:54
352F:嘘 jengjian: 连两天了,加油好吗 07/12 18:54
353F:嘘 mindgan: 双杀全 07/12 18:55
354F:推 littlethree: 郭严文报仇了 07/12 18:55
355F:→ leborn315: 自杀棒来了 07/12 18:55
356F:→ aa97531aa: 爽 07/12 18:55
357F:→ sinon17: 地狱倒楣鬼 昨天也一球 07/12 18:55
358F:→ tw88: 139 07/12 18:56
359F:推 mindgan: 以後垒上有人乾脆叫e全点好了 07/12 18:58
360F:推 dandanhanbau: 守备组 07/12 18:59
361F:推 jj1004: 笑死 又没打多差 真的点了 也是被酸啦 07/12 18:59
362F:推 yyc1217: 换螃蟹沈 07/12 18:59
363F:推 nomo1616: 叫第四棒点被笑而已 07/12 19:00
364F:推 muching: DP 07/12 19:01
365F:推 whshsquall: yes ! DP 07/12 19:01
366F:推 babaholala: 什麽叫做 463 DP? 07/12 19:01
367F:→ tw88: DP NP~~~ 07/12 19:01
368F:推 shintz: 也是dp 07/12 19:01
369F:推 terryiory: 奶精守备稳定度好多了 07/12 19:02
370F:→ tw88: 依照防守位置的数字 07/12 19:02
371F:推 philxiao: 防守员4传6传3 07/12 19:02
372F:→ muching: 4(2B)-6(SS)-3(1B) 07/12 19:02
373F:→ whshsquall: 不错不错 07/12 19:03
374F:→ terryiory: 4=2垒手、6=游击手、3=1垒手 07/12 19:03
375F:推 jj1004: 所以之前用沈1人左是什麽意思 实在看不懂 07/12 19:03
376F:推 hu610346: XDDD一直改变投球姿势有够机车的XD 07/12 19:03
377F:推 Y1999: 不是签约投手有差 07/12 19:03
378F:→ muching: 螃蟹侧投之後这球路好威 07/12 19:03
379F:→ tw88: 会常常听到463 643双杀守备 07/12 19:04
380F:→ tw88: 男哥要上惹!!!!!!!! 07/12 19:04
381F:→ terryiory: 还有3-6-1 07/12 19:04
382F:→ jj1004: 投手能用的就不多了 还爱左右病1人左...难怪老皮累爆了 07/12 19:04
383F:→ muching: 沈改姿势复出之後其实不错,看教练愿不愿意用而已 07/12 19:05
384F:→ SmallPChan: 螃蟹出手点太明显,要被破了吧 07/12 19:06
385F:推 yyc1217: 守备组上了 07/12 19:13
386F:→ cht211: 咖啡不能算守备组了吧 07/12 19:14
387F:→ cht211: 本季e一堆 07/12 19:14
388F:推 NTJL: 1投手 2捕手 3一垒 4二垒 5三垒 6游击 7左外 8中外 9右外 07/12 19:15
389F:推 a5480277: 11-0 詹帅好冏 07/12 19:15
390F:推 littlethree: 投的好好的又换了 XD 07/12 19:15
391F:推 hu610346: 不投则以 一投两局= = 07/12 19:15
392F:推 m85037: EJ 07/12 19:15
393F:→ NTJL: EDA持续展现RP海 07/12 19:15
394F:推 jj1004: 刚刚右打双杀 现在又出来刷存在感..... 07/12 19:16
395F:推 SmallPChan: 1J? 07/12 19:16
396F:推 tw88: 没错没错 07/12 19:16
397F:推 muching: 我觉得以螃蟹今天的状况和用球数,应该可以吃两局才对 07/12 19:16
398F:推 KG8807037: 换萧...不妙.. 07/12 19:16
399F:→ mindgan: 为何这时换萧? 07/12 19:16
400F:推 twnc1006: 先猜等等会有bb 07/12 19:17
401F:→ jj1004: 萧就不要掉分 罗伯特真的有料吗? 07/12 19:17
402F:→ SmallPChan: 我爱罗要热身啦 07/12 19:17
403F:→ tw88: 一球死 我罗(伯特)神威 07/12 19:18
404F:→ SmallPChan: 惊险 07/12 19:18
405F:嘘 hbk20491: 不然 换皮吗? 07/12 19:18
406F:→ SmallPChan: bbj 07/12 19:19
407F:推 scatology: 皮不错啊XDDDD 07/12 19:19
408F:推 muching: 果然BB来了 07/12 19:20
409F:推 tw88: BB xd 07/12 19:20
410F:→ SmallPChan: 老皮该休息了 07/12 19:20
411F:→ mindgan: 萧又来了 07/12 19:20
412F:推 dandanhanbau: 杰哥 不要啦 07/12 19:20
413F:推 yyc1217: (起油锅) 07/12 19:20
414F:推 KG8807037: 萧你是故意要对大师兄是吧... 07/12 19:20
415F:推 whshsquall: O_o 07/12 19:20
416F:→ SmallPChan: 我爱罗! 07/12 19:20
417F:推 reborn0301: 牛棚海 07/12 19:21
418F:推 jj1004: 换一个上来bb 然後逻要提早上班 颗颗 07/12 19:21
419F:推 jenchieh5: ............... 07/12 19:21
420F:→ yyc1217: 罗伯特我不懂你的明白 07/12 19:21
421F:推 allenlee6710: .......................... 07/12 19:21
422F:推 ft090646: 要换老皮了吗 07/12 19:21
423F:推 st900278: 义大 终结者是流行投四个出局数吗 07/12 19:21
424F:→ ft090646: 结果是罗 07/12 19:22
425F:推 sinonyam: 顶尖对决 火球仁vs大师兄 07/12 19:22
426F:推 shintz: 还是lo 07/12 19:22
427F:推 jj1004: 罗伯特 这跟沈钰杰如果被打安打 再换罗嘉仁有什麽不同 07/12 19:23
428F:推 ivan609: 火球仁最近都提早一人次上班 07/12 19:23
429F:推 SmallPChan: 永泽脸好憨 07/12 19:23
430F:→ jj1004: 还可以少用一个投手勒.... 07/12 19:23
431F:推 scatology: 火球仁冲啊 07/12 19:24
432F:→ ivan609: 147 148 07/12 19:24
433F:推 whshsquall: 大师兄看了两颗好球 07/12 19:24
434F:→ ivan609: 150!!! 07/12 19:24
435F:→ scatology: 150 07/12 19:24
436F:推 de606430: 这几球都很漂亮 07/12 19:24
437F:推 m85037: 150 07/12 19:25
438F:→ ivan609: 148 中穿... 1.3B 07/12 19:25
439F:推 muching: ww又漏球 07/12 19:25
440F:推 yankees733: 还是安打 07/12 19:25
441F:→ whshsquall: 大师兄打得好 07/12 19:25
442F:→ scatology: 其实投的不差 07/12 19:25
443F:推 buzz0116: 逆转味 07/12 19:25
444F:→ ivan609: 球位置不错 大师兄厉害... 07/12 19:25
445F:推 littlethree: 没失投又低...大师兄打的好 07/12 19:26
446F:推 hbk20491: 我猜3分炮 07/12 19:26
447F:推 tom80114: 我牛需要虾 07/12 19:26
448F:推 alsk1566: 没话说... 07/12 19:26
449F:推 a8330028: BS就算了 搞不好还能捡败 07/12 19:26
450F:推 jackytien: 钓虾还要等多久 07/12 19:26
451F:→ ivan609: 152!!!! 07/12 19:26
452F:推 hinesika: KK 07/12 19:27
453F:推 linchung: BS 07/12 19:27
454F:推 whshsquall: orz 又平手了 07/12 19:27
455F:推 scatology: BS 07/12 19:27
456F:→ ivan609: 153 二穿....... 平手...= = 07/12 19:27
457F:→ hinesika: 唉 啧啧 07/12 19:27
458F:推 JoneNan: XDDDDD 07/12 19:27
459F:推 murray: BSSSSSSSSSSSSSSSSSSSS 07/12 19:27
460F:推 yankees733: BS仁又来了 07/12 19:27
461F:嘘 easybaby: QQ 07/12 19:27
462F:嘘 hbk20491: ======================超烂的======================== 07/12 19:27
463F:推 allenlee6710: 唉... 07/12 19:28
464F:推 KG8807037: 无言.... 07/12 19:28
465F:推 kit279: 阿哈哈哈 BS仁 07/12 19:28
466F:推 thnlkj0665: HHHHHHHHHHHHHHHHHHHHHHH 07/12 19:28
467F:推 ccc73123: bsssssssssssssssssssssssss 07/12 19:28
468F:推 jj1004: 果然掉分了 罗伯特好会调度喔XDD 07/12 19:28
469F:推 freedomshit: XDDDDD 07/12 19:28
470F:推 DaiBo: .... 07/12 19:28
471F:推 key000130: 老实说这几球都不错.. 07/12 19:28
472F:推 philxiao: BBBBBBBBBBBBBBBBBBBBBBBBBBBSSSSSSSSSSSSSSSSSSSSSSSSS 07/12 19:28
473F:推 zxcvb0412: 哀 LO 07/12 19:28
474F:推 devil0915: 恐怖第八局 07/12 19:28
475F:→ sharkhead: ===================曹>>>>LO======================== 07/12 19:28
476F:推 app543: 阿仁要摔手套了 07/12 19:28
477F:嘘 cloudx1119: 义大烂透了。。应该会被逆转 07/12 19:28
478F:→ ivan609: 胜胖真的很难对付...= = 07/12 19:28
479F:推 SmallPChan: 又BS了 07/12 19:28
480F:推 oh123oh: BSSSSSSSSSSSSSS 07/12 19:28
481F:→ cauliflower: 晕倒... 07/12 19:28
482F:推 nomo1616: 两好球怎不吊球.... 07/12 19:28
483F:→ instill8: 妙蛙 07/12 19:28
484F:推 a8330028: 爽 07/12 19:28
485F:推 m85037: 老实说这几球都不错.. 07/12 19:28
486F:→ KG8807037: 换什麽萧...要嘛乾脆让他投完啊... 07/12 19:28
487F:推 Johnny1101: 火球仁到底少了什麽? 07/12 19:28
488F:→ yankees733: 推鲨鱼哥 07/12 19:29
489F:→ ccc73123: 现在就换代跑有点大胆啊... 07/12 19:29
490F:→ a8330028: 守备组上来了 07/12 19:29
491F:推 scatology: ....... 火球仁加油啊 07/12 19:29
492F:推 wb7346: 不打算延长了? 07/12 19:29
493F:→ jj1004: 现在局面 搞不好沈钰杰投最烂也就是这样 换的好棒棒喔 07/12 19:29
494F:→ freedomshit: 全直球在想什麽 07/12 19:29
495F:→ nomo1616: 少了稳定的变化球搭配制造速差 07/12 19:29
496F:→ a8330028: 来一发吧 07/12 19:29
497F:→ icecold52: 陈雁风的守备也很让人担心啊 07/12 19:29
498F:推 BellamyLee: 我猿练兵,该休息就休 07/12 19:29
499F:推 muching: 如果让沈续投,这局应该早就结束了 XD 07/12 19:30
500F:推 straight0711: 不会延长阿 八下EDA打两轮 07/12 19:30
501F:→ hbk20491: 笑死 一堆人 还在推 罗笙门 还以为林琨笙很会配 07/12 19:30
502F:→ muching: 明明沈今天状况就不错,休息又充足 07/12 19:30
503F:推 alsk1566: 136...这是变化球吗?! 07/12 19:30
504F:推 ivan609: 今天球速好像没有之前快... 147~152左右 07/12 19:30
505F:推 globemusic: 义大补手不会配球~直球高球也很有引诱性吧XD 07/12 19:30
506F:推 cutemie: 火球仁这几天运气有点惨... 07/12 19:30
507F:→ BellamyLee: 义大投手被操坏了 07/12 19:31
508F:推 LaMaAldridge: 老皮........ 07/12 19:31
509F:推 WeAntiTVBS: 老 皮 07/12 19:31
510F:推 a8330028: 会开鲁阁吗 07/12 19:31
511F:→ pdr666333: 老疲准备中 07/12 19:31
512F:推 goodevening: 又是老皮 07/12 19:31
513F:→ muching: 然後现在老疲又在热身,真的很搞笑 07/12 19:31
514F:推 jj1004: 老皮喔 罗伯特真的好棒棒 07/12 19:31
515F:推 julieakira: gogo 07/12 19:31
516F:→ freedomshit: 这什麽配球 天啊 07/12 19:31
517F:→ thnlkj0665: 老皮还在热身... 07/12 19:31
518F:嘘 stevezhao: 又老皮 07/12 19:32
519F:推 straight0711: KKK 07/12 19:32
520F:→ ivan609: 150 KKKKKKKKKKKKKKKKKKKKKKKKKKKKKKK 07/12 19:32
521F:推 scatology: KKKKKKKKKKKKKKKM 07/12 19:32
522F:推 easybaby: KKK 07/12 19:32
523F:→ scatology: 帅啊 火球仁 07/12 19:32
524F:→ howard9966: 精彩 07/12 19:32
525F:推 allenlee6710: 老皮上 我就翻脸 07/12 19:32
526F:嘘 hbk20491: ===================三振怎没拉弓??????????=========== 07/12 19:32
527F:推 milkMiyuki: 平手才K有个屁用啊 07/12 19:32
528F:→ jj1004: 不用怪罗啦 他最近都投超多的 今天球速也没前几天快了 07/12 19:32
529F:推 LoveCheer: 哈哈BS仁 07/12 19:32
530F:→ ivan609: 就败在胜胖那两棒...= = 07/12 19:32
531F:推 awpex127: 楔悀悒眹茪F 07/12 19:33
532F:推 a12367227: 只掉别人的分xDDDD 07/12 19:33
533F:→ mindgan: 当义大先发的功课就是做白工 07/12 19:33
534F:→ jj1004: 前几天随便就153 154 今天还有148 149的 07/12 19:33
535F:推 cutemie: 几乎是天天皮...ORZ 07/12 19:33
536F:→ LoveCheer: 逼出老皮我猿就赢罗 毕竟我们早是练兵模式罗 07/12 19:33
537F:→ jj1004: 1出局 左右病换投手 就开始爆了 自己都不相信沈了.... 07/12 19:34
538F:推 mats0816: 红中那麽早换守备组..锋哥都没机会代打了... 07/12 19:34
539F:嘘 hayato24: 等我虾来了,ww就可以滚了,老是漫不经心 07/12 19:34
540F:推 j6569642: 大师兄下场了 07/12 19:35
541F:嘘 Spongebob: BS之神~火球仁 07/12 19:35
542F:推 shaotsung: 看来戏码又要重演了 07/12 19:35
543F:推 SmallPChan: 外角海 07/12 19:37
544F:推 e7660239: 赶下班? 07/12 19:37
545F:推 m85037: 外角海 07/12 19:37
546F:推 LaMaAldridge: WW个性好像很铁齿 不挥就是不挥 07/12 19:37
547F:推 yyc1217: 想去逛夜市了吗主审 07/12 19:38
548F:推 iceyang: 跟60号要的位置也差太多 07/12 19:38
549F:→ SmallPChan: 我火! 07/12 19:38
550F:→ sharkhead: 明明就好球 07/12 19:38
551F:推 yesfay: 姊姊跟嘟嘟ERA黄金交叉了说,只输凯文 07/12 19:38
552F:推 nomo1616: 到底为何对小胖两好球不吊球?到底为什麽? 07/12 19:38
553F:推 wb7346: 祷告a叮当 07/12 19:38
554F:推 EdisonDeng: 好晃 07/12 19:39
555F:推 ivan609: 游穿HHHHHHHHHHHH 07/12 19:39
556F:推 key000130: 抓紧了 要炸裂了 07/12 19:39
557F:→ icecold52: 场边啦啦队好像流很多汗 07/12 19:40
558F:推 NTJL: 被顺势推出去 07/12 19:40
559F:推 qndad: 这个Rhino girls奶好大阿 >///< 07/12 19:40
560F:→ ivan609: 桃猿王来啦!!!!! 07/12 19:40
561F:推 straight0711: 入肉 林WW这好球带 给罗早就下庄了 07/12 19:40
562F:推 SmallPChan: 我辉来也~ 07/12 19:40
563F:推 alsk1566: 火字辈相挺啦!~ 07/12 19:40
564F:→ key000130: 我辉要炸了 07/12 19:40
565F:→ sharkhead: 不详の预感 07/12 19:40
566F:→ ivan609: 挖 续投面对桃猿王!!! 07/12 19:40
567F:推 shaotsung: 没换 要GG了 07/12 19:40
568F:推 a5480277: 续投 07/12 19:41
569F:推 a23644910: 是Rhino Angels吧 07/12 19:41
570F:→ a5480277: 居然想挑战今天的高国辉!!! 07/12 19:41
571F:推 yankees733: 怎麽不换,3之3耶 07/12 19:41
572F:→ key000130: 炸吧!!!!!!!!!!“““ 07/12 19:41
573F:推 wb7346: 对我辉偷局数 准备吃HR吧 07/12 19:41
574F:→ william7713: 应该会投很开吧... 07/12 19:41
575F:→ ivan609: 投不进去 要自爆了!? 07/12 19:42
576F:推 iceyang: 姊姊 报仇吧! 07/12 19:42
577F:推 LaMaAldridge: 感觉姐姐投球姿势有点开掉了 07/12 19:42
578F:推 muching: 越投越带劲 07/12 19:42
579F:推 whshsquall: 一棒击沉他! 07/12 19:42
580F:推 SmallPChan: 会怕就好 07/12 19:42
581F:推 scatology: 三坏 07/12 19:42
582F:→ ivan609: 要面对三分全?? 07/12 19:42
583F:→ wb7346: 原来是又要抓E全 为什麽说又呢 07/12 19:42
584F:→ key000130: 看来要面对三井全了 07/12 19:42
585F:→ rock0525: 不敢拼就换人呀.... 07/12 19:42
586F:推 alsk1566: 感觉王想要拼的表情很坚定耶~ 07/12 19:43
587F:推 shaotsung: 堆垒包抓E全 要被打脸吧 07/12 19:43
588F:→ key000130: 炸的预感 07/12 19:43
589F:推 Y1999: 应该会被炸+1 07/12 19:43
590F:→ alsk1566: 我说刚才吴俊良上去跟他讲的时候~ 07/12 19:43
591F:→ SmallPChan: 满 07/12 19:43
592F:→ scatology: 满球数 07/12 19:43
593F:推 JetYen: 爱偷局数的无良 输不怕的 07/12 19:44
594F:推 straight0711: 蜻蜓铁支 H 07/12 19:44
595F:→ ivan609: HHHHHHHHHHHHHHHHHHHHHHHHHHHHHHHHHHHHHHHHH 07/12 19:44
596F:→ key000130: h 07/12 19:44
597F:推 muching: 铁支 07/12 19:44
598F:推 freedomshit: XDDDDD 07/12 19:44
599F:→ yankees733: 铁支 07/12 19:44
600F:→ scatology: 四支四 07/12 19:44
601F:推 EdisonDeng: 1安 你猿小赚 07/12 19:44
602F:→ ivan609: 三分全来了!!!!!!!!!!!!! 07/12 19:44
603F:推 RudyGay: 三分球 07/12 19:44
604F:推 ddtin: 没偷到 07/12 19:44
605F:推 wb7346: 还不换吗 07/12 19:44
606F:推 a5480277: 4-4 超威的 07/12 19:44
607F:→ SmallPChan: 三分全! 07/12 19:44
608F:推 leonjapan: 地方少棒预赛 07/12 19:44
609F:推 easybaby: 一棒击沉~~~~~~~~~~~~~~~~~~~ 07/12 19:44
610F:推 iceyang: 报不了仇 该换了 QAQ 07/12 19:44
611F:→ key000130: 再偷 准备天罚 07/12 19:44
612F:推 s66671122: 也太鬼神 07/12 19:44
613F:推 GentleJena: 猜三分全还是DP全 07/12 19:44
614F:→ a5480277: 又轮到一拳了 07/12 19:44
615F:嘘 colin8930: 不换? 07/12 19:44
616F:→ scatology: 换投好吗? 07/12 19:45
617F:→ Y1999: 换火牛 上来被炸 下半局反攻无力 下半季猴子的日常 07/12 19:45
618F:→ shaotsung: 这种教练团 不偷到炸掉是不会换的 07/12 19:45
619F:推 stevezhao: 还不换 07/12 19:45
620F:推 yyc1217: 放心 不炸掉是不会换的 07/12 19:45
621F:推 app543: 又来到命运的三分 07/12 19:45
622F:推 WeAntiTVBS: 差一点 07/12 19:45
623F:→ RudyGay: 可惜 07/12 19:45
624F:推 littlethree: 一个一直换一个死不换 07/12 19:45
625F:→ ivan609: 爱接鬼................... 07/12 19:45
626F:推 s638450: 偷到了xdddddddd 07/12 19:45
627F:→ easybaby: QQ 07/12 19:45
628F:推 murray: 一全差一点 XD 07/12 19:45
629F:推 JetYen: See you !!! 07/12 19:45
630F:→ yankees733: 差点 07/12 19:45
631F:→ scatology: 精算师 07/12 19:45
632F:推 whshsquall: 差点阿XD可惜 07/12 19:45
633F:→ rock0525: 可惜...... 07/12 19:45
634F:推 alsk1566: 铁定没DP吧XD 07/12 19:45
635F:→ wb7346: 这投教还不换 啧啧 07/12 19:45
636F:→ stevezhao: 好恐怖..... 07/12 19:45
637F:→ GentleJena: 给正义歌加油曲!!! 07/12 19:45
638F:→ shaotsung: 还以为又是三分球 07/12 19:45
639F:推 Bartleby: 软 07/12 19:45
640F:推 allenlee6710: QQ 07/12 19:45
641F:→ key000130: 红中赌成功了 07/12 19:45
642F:推 a76126: 抖了好几滴尿 07/12 19:45
643F:推 lolucky531: 吓死了 还以为要三分球 07/12 19:45
644F:推 Uncontinue: 那看起来比较像我们整季的日常啊... 07/12 19:45
645F:推 werger: 差点就爆了 07/12 19:45
646F:推 sheng514155: XDDDDDD 07/12 19:45
647F:推 jj1004: 林益全今天有够衰.... 07/12 19:45
648F:→ a5480277: 可惜阿 我还以为有机会的 07/12 19:45
649F:→ icecold52: 无良:被我偷到局数了 超爽der~~~~~~~ 07/12 19:45
650F:→ ivan609: 仰角再高一点应该有机会XDDD 07/12 19:45
651F:推 bredka: 衰全不意外 07/12 19:45
652F:嘘 q123123no1: 爱接鬼欸 07/12 19:46
653F:推 LaMaAldridge: 神站位 正常来讲应该会欧把 07/12 19:46
654F:推 ccc73123: 运气好 07/12 19:46
655F:→ straight0711: ERA瞬间又少二 真的厉害 07/12 19:46
656F:推 reborn0301: 又软手 为什麽又说又呢? 07/12 19:46
657F:推 Hibachi: 差点XD 07/12 19:46
658F:推 KG8807037: 运气不错..竟然没掉分.. 07/12 19:46
659F:→ yankees733: 红中:颗颗 07/12 19:46
660F:→ iceyang: 差很好远 好嘛= = 07/12 19:46
661F:→ yyc1217: 太可惜啦 07/12 19:46
662F:推 hu610346: 今天真的有够虽= = 07/12 19:46
663F:→ wb7346: 神全的日常 07/12 19:46
664F:→ sharkhead: [诈裂] 永泽 07/12 19:46
665F:推 philxiao: 竟然接到了?! 有布阵还是守比较远?! 07/12 19:46
666F:推 matsuiss: 软手全 不意外 07/12 19:46
667F:推 dunhiller: NP 07/12 19:46
668F:推 iwinlottery: 该换了 侥幸守下三分 07/12 19:46
669F:推 tws80531: 应该就站很深 07/12 19:46
670F:→ ivan609: 神全今天球都打得很强劲 可惜就是都找手套...... 07/12 19:46
671F:推 howlong: 给红中偷到 07/12 19:46
672F:→ s66671122: 感觉轰了 那气势满分 07/12 19:46
673F:→ a12367227: 姊姊真好运 07/12 19:46
674F:→ wb7346: 先猜下半局关键E 07/12 19:47
675F:→ matsuiss: 哪来可惜 07/12 19:47
676F:推 JetYen: 身为猿迷 我好希望球飞出去教训投教 07/12 19:47
677F:推 latria: EDA气没了 07/12 19:47
678F:→ jj1004: 输一输算了 不然又要烧老皮了 07/12 19:47
679F:→ ivan609: 4052人 07/12 19:47
680F:推 twnc1006: 我也觉得没必要偷成这样 07/12 19:47
681F:推 GentleJena: 星期天4052不错了 07/12 19:47
682F:推 adam7148: 有点少 07/12 19:48
683F:→ Y1999: 两队有志一同骂自己家的投教XDDDD 07/12 19:48
684F:→ twnc1006: 明明还有柏又 07/12 19:48
685F:→ JetYen: 姐姐的球都投不到捕手要的位置 07/12 19:48
686F:推 straight0711: 不换就是要看有无十胜可捡阿 07/12 19:48
687F:推 awpex127: 炸裂是教训姐姐 不是教训投教 07/12 19:48
688F:→ jj1004: 罗今天的球速明显慢了 07/12 19:48
689F:推 key000130: eee 07/12 19:48
690F:嘘 RudyGay: ....EEEE 07/12 19:48
691F:→ ivan609: 凯伦 你.......... 07/12 19:48
692F:推 LaMaAldridge: 熟悉的剧本 07/12 19:49
693F:→ HAPPYDOLL: E大犀牛来罗 07/12 19:49
694F:推 murray: → wb7346: 先猜下半局关键E 先知来了 XD 07/12 19:49
695F:→ key000130: 要天罚了 07/12 19:49
696F:推 yyc1217: 义大特产 失误必失分 07/12 19:49
697F:推 aa97531aa: 要赢了? 07/12 19:49
698F:推 devil0915: 关键E来罗 07/12 19:49
699F:推 evo2100: → wb7346: 先猜下半局关键E 07/12 19:49
700F:→ JetYen: 还死不换 真的很讨厌无良 07/12 19:49
701F:推 iceyang: 特产 好的开始! 07/12 19:49
702F:推 a5480277: EEEE 又来了 07/12 19:49
703F:→ RudyGay: 点惹 07/12 19:49
704F:推 a23644910: wb7346: 先猜下半局关键E 07/12 19:49
705F:推 shintz: 冏 07/12 19:49
706F:推 ccc73123: EEEEEEEEEEEEEEEEEEEEEEEEEEDA 07/12 19:49
707F:推 eDisoNbaby: → wb7346: 先猜下半局关键E 07/12 19:49
708F:→ aa97531aa: 天罚来了 07/12 19:49
709F:推 BellamyLee: Wb7346… 07/12 19:49
710F:推 edgeking: 先知快拜 07/12 19:49
711F:→ ivan609: 谢谢你 自杀XDDD 07/12 19:49
712F:→ key000130: 义大下半季都一直领先前七局 然後被追平或逆转... 07/12 19:49
713F:推 scatology: 点这啥XDDDDDDDD 07/12 19:49
714F:推 alsk1566: 我猜DP... 07/12 19:50
715F:推 wb7346: 牛牛的日常....... 07/12 19:50
716F:→ jj1004: 洪中你不要故意自杀好不好 不想烧老皮 07/12 19:50
717F:→ icecold52: 点失败 悲剧 07/12 19:50
718F:推 xxx3: ............................... 07/12 19:50
719F:推 shaotsung: 爱将的日常 07/12 19:50
720F:推 easybaby: XDD 07/12 19:50
721F:→ iceyang: 吱吱真的超级不会点球= = 07/12 19:50
722F:→ pigfisher: 真 爱将 07/12 19:50
723F:推 RiskSoul: 来个dp 07/12 19:50
724F:→ a5480277: 爱将今天超囧 07/12 19:50
725F:→ mats0816: 爱将不意外 07/12 19:50
726F:→ iceyang: 就算红中不常点 平时多少也要练一下好咩 07/12 19:50
727F:推 fu456: 爱将昨天爽过头了XD 07/12 19:51
728F:推 Y1999: 一个点失败 一个E.... 07/12 19:51
729F:→ wb7346: 然後暴投吗 07/12 19:51
730F:推 murray: 刚那个给安打??? 07/12 19:51
731F:推 redfish1004: 刚刚安打= =严文表示: 07/12 19:52
732F:推 philxiao: 划线了划线了 07/12 19:52
733F:推 straight0711: I-JOHN 昨英雄 今狗熊 07/12 19:52
734F:推 SmallPChan: 打太好 主审帮拐 07/12 19:53
735F:推 nomo1616: 刚那球改安打? 07/12 19:54
736F:推 scatology: 受伤???????? 07/12 19:54
737F:→ icecold52: 妙蛙种子 手指破皮?! 07/12 19:54
738F:推 s638450: 主播说E改安打 07/12 19:54
739F:推 goodevening: 老皮看来要上了 07/12 19:54
740F:推 iceyang: 老疲准备好了 07/12 19:54
741F:推 jj1004: 被操爆了 最近投多少球了 自己去算算 07/12 19:54
742F:推 Y1999: 烧到老皮 红中已经赢了 07/12 19:55
743F:推 muching: 要烧老疲了? 好惨 07/12 19:55
744F:→ hbl420ii: 种子种子 07/12 19:55
745F:→ scatology: 老皮XDDDDD 07/12 19:55
746F:推 whshsquall: 老皮 XD 07/12 19:55
747F:推 reborn0301: 叶总被天罚了 07/12 19:55
748F:→ rock0525: 阿皮又要上了.... 07/12 19:55
749F:→ shermanqoo: 又老皮?这教练认真的吗? 07/12 19:55
750F:→ jj1004: 罗最近连老皮的局数一起吃 刚刚都14x 罗伯特烂透了 07/12 19:55
751F:→ muching: 丰哥上 07/12 19:55
752F:→ Kapersky: 老皮在上 我就真的不觉得小叶好到哪 07/12 19:55
753F:推 app543: 玻璃仁 07/12 19:55
754F:→ whshsquall: 老皮只是幌子 07/12 19:55
755F:推 ivan609: 换了 丰哥上班 07/12 19:55
756F:推 key000130: 林正丰 07/12 19:55
757F:推 NTJL: 被自己的飞叶快刀弄到? 07/12 19:55
758F:→ icecold52: 林正丰吧 07/12 19:56
759F:推 werger: 林正丰先上 07/12 19:56
760F:→ sharkhead: 哀 中华队少一个战将了 07/12 19:56
761F:推 OrniG: 球童妹跑好快 07/12 19:56
762F:推 CarrieWhite: 没老皮操改操LO 07/12 19:56
763F:推 philxiao: 罗破皮烧老皮 07/12 19:56
764F:→ ivan609: 希望没大碍 07/12 19:56
765F:→ Kapersky: 根本跟传统教练一个样 爱操 07/12 19:56
766F:→ devil0915: 中离... 07/12 19:56
767F:推 FannWong: 被罗逃败了可惜 07/12 19:56
768F:→ Kapersky: 其实这几场 可以看到 小叶其实也很爱操 好用继续用 07/12 19:56
769F:推 xuptjo: 垒上还有人啊 还是有可能败 07/12 19:57
770F:→ NTJL: 垒上那分是他的 掉的话还是他败投阿~ 07/12 19:57
771F:→ NTJL: 但前提是LM打得回来 07/12 19:57
772F:→ FannWong: 不是罗投打的回来吗 > < 07/12 19:58
773F:推 wb7346: 林正丰好像不会把别人的分送回来 不怕 07/12 19:58
774F:推 HonusWagner: 这啥鸟控球 07/12 19:58
775F:推 goodevening: 看这控球,bb机率很大 07/12 19:58
776F:推 redfish1004: 菜就那样阿= = 当然好用的一直用 07/12 19:58
777F:推 BellamyLee: 义大会不会太操...... 07/12 19:59
778F:→ wb7346: 热身真的够吗。。。 07/12 19:59
779F:推 yyc1217: 哪一个教练不是好用的继续用 07/12 19:59
780F:推 scatology: 热身感觉不够 控球抖抖的 07/12 19:59
781F:→ redfish1004: 不用输的话也是被骂阿= = 07/12 19:59
782F:推 tw88: 投进去惹 07/12 19:59
783F:推 clearday: BBBBBBBBBBBBBB 07/12 20:00
784F:推 yankees733: BB 07/12 20:00
785F:→ scatology: BB 07/12 20:00
786F:推 nomo1616: 哪个总教练不是好用就一直用,总教练是有战绩压力的 07/12 20:00
787F:→ tw88: BB 07/12 20:00
788F:→ nomo1616: 跟菜不菜没关系 07/12 20:00
789F:推 leotompp: 这个大胖的是谁@@ 07/12 20:00
790F:推 ft090646: ................... 07/12 20:00
791F:→ NTJL: 抓詹帅 聪明 07/12 20:00
792F:推 ccc73123: 这个BB抵销了刚刚触击失败 07/12 20:00
793F:推 jj1004: 输一输啦 平手还要烧老皮 07/12 20:00
794F:→ clearday: 现在几号 07/12 20:01
795F:推 cissant: 自杀棒来了 07/12 20:01
796F:推 key000130: 腿詹打击 07/12 20:01
797F:推 corner0111: 怎不让锋哥上来 07/12 20:01
798F:推 straight0711: EDA投又变A4 07/12 20:01
799F:→ NTJL: 跟菜有关系阿 你给青菜萝卜总不可能煮出佛跳墙吧 07/12 20:01
800F:推 iceyang: 不会阿 罗伯特就很保护洋投 07/12 20:01
801F:推 s638450: Hhhhhhhhhh 07/12 20:01
802F:推 FannWong: 爽打回来了 07/12 20:01
803F:推 shinichi: 小叮当XD 07/12 20:01
804F:→ clearday: 拼过头了 07/12 20:01
805F:推 LaMaAldridge: 60号XDDDDDDDDDDDDDDDDD 07/12 20:01
806F:推 murray: 太好了 不用烧老皮了 XD 07/12 20:01
807F:推 m85037: 刘时豪 一安 二安 三振 四坏 07/12 20:02
808F:→ leotompp: 大胖~~~~跑蛮快的耶~~ 07/12 20:02
809F:→ rock0525: 又要吞败了吗.... 07/12 20:02
810F:推 lolucky531: 喜感XDDD 07/12 20:02
811F:→ NTJL: 詹帅这安打关键 07/12 20:02
812F:推 scatology: 老皮可以休息了 07/12 20:02
813F:→ iceyang: 60号 超好笑 07/12 20:02
814F:→ Kapersky: 主播好糗 以为三出局了 07/12 20:02
815F:推 xuptjo: lo................ 07/12 20:02
816F:推 devil0915: 关键E发酵罗 07/12 20:02
817F:推 wb7346: 喜感跌XDDDDD 07/12 20:02
818F:→ icecold52: 不能怪小叮当啦 腿太短 跑不快 XDDD 07/12 20:02
819F:推 ccc73123: 这麽浅还冲3垒........... 07/12 20:02
820F:推 yankees733: BS仁要吞败了吗 07/12 20:02
821F:推 a1len: 速球没有威力....被打了 07/12 20:02
822F:→ Kapersky: 陈瑞昌OS : 哩系起肖逆 07/12 20:02
823F:→ jj1004: ya 不用烧老皮了 一切都是没人上垒换掉沈开始 嫌投手太多 07/12 20:02
824F:推 a5480277: 詹帅终於敲安了 还敲得很是时候 07/12 20:02
825F:推 dunhiller: 哈哈 07/12 20:02
826F:推 GentleJena: 触杀之後趴在地上XD 07/12 20:02
827F:推 Uncontinue: 果然 我就说牛棚放火比较像我们的日常啊 07/12 20:03
828F:推 corner0111: 60号趴在三垒有够爆笑 07/12 20:03
829F:→ iceyang: 标准的死在垒包上 整个趴着超好喜感 07/12 20:03
830F:嘘 key000130: 陈凯伦守好就不会掉分了 07/12 20:03
831F:推 philxiao: 老皮:丰哥谢谢你,我不用上了…吧? 07/12 20:03
832F:→ jj1004: 罗如果只是破皮 可以休息几天 不用被操了 老皮小心了 07/12 20:03
833F:推 Y1999: 犀牛跟猴子队形真的有够像...只是火力输出位子不同 07/12 20:03
834F:推 globemusic: 可以组团去虚义大教练团和不认真的球员吗 07/12 20:04
835F:→ icecold52: LM应该会换BOYO吧 07/12 20:04
836F:→ Uncontinue: 而且我们的守备洞还比你们多 07/12 20:04
837F:→ nomo1616: 噢我的意思是跟总教练资历菜不菜没关系。前面推文的意 07/12 20:04
838F:→ nomo1616: 思我理解错了 07/12 20:04
839F:推 goodevening: 赌ww传球其实很合理 07/12 20:05
840F:→ globemusic: 一分差的比赛 是教练的调度 07/12 20:05
841F:→ NTJL: 我想他的意思应该是我理解的那样 不知道有没有解读错 07/12 20:05
842F:推 tw88: BOYO晚安曲 07/12 20:06
843F:推 WongTakashi: 姐姐胜投候选? 07/12 20:06
844F:推 a1len: 这个打序........ 07/12 20:06
845F:→ goodevening: boyo控球怎麽会进步这麽多 07/12 20:06
846F:推 chickensam: lm稳了 07/12 20:06
847F:推 wb7346: 这球速............... 07/12 20:06
848F:推 dunhiller: LOVE PSYCHEDELICO? 07/12 20:06
849F:→ reborn0301: 昨天好像也是这棒次? 07/12 20:07
850F:→ a1len: 九下轮到自杀棒打序...QQ 07/12 20:07
851F:推 s638450: 昨天也是567没错 07/12 20:08
852F:推 scatology: KKKKKK 07/12 20:08
853F:推 ivan609: 达鸿跟维尼可以代打 07/12 20:08
854F:推 LaMaAldridge: 准 07/12 20:08
855F:推 Uncontinue: 别这样 澄清湖首战小白还打过再见安QQ 07/12 20:08
856F:→ a1len: 惨 07/12 20:08
857F:→ a23644910: KKKKKKKKKKKKKKKKKKKKK 07/12 20:08
858F:推 philxiao: 准 07/12 20:08
859F:→ straight0711: 笑死 罗投这位置都坏球 07/12 20:09
860F:推 BellamyLee: DH应该用别人吧 07/12 20:09
861F:推 jenchieh5: 义大好惨... 07/12 20:09
862F:推 NTJL: 这应该是二缝?! 最後会转进去 07/12 20:09
863F:推 xxx3: 准 没话说 不用外角海就可以用外角球海K了 07/12 20:09
864F:→ a1len: 提早上打哄了 昨天打得还不错、不过飞球找手套 07/12 20:09
865F:推 popbitch: 嗯哼 07/12 20:09
866F:推 linchung: 猛将接杀 XD 07/12 20:09
867F:→ a1len: 这次打左飞QQ 07/12 20:09
868F:→ ivan609: 又找人........今天完全没气 07/12 20:09
869F:推 wuden4437: 最好是罗投那位子坏球啦 午午又要怪裁判了? 07/12 20:10
870F:推 goodevening: boyo後援真的稳 07/12 20:10
871F:→ a1len: 昨天右飞、今天左飞QQ 07/12 20:10
872F:推 gogogo123: 永维还有哪个地方不能守的 07/12 20:10
873F:推 devil0915: 义大各种找手套啊 07/12 20:10
874F:→ a1len: 黑峻代打....不要背黑锅啊QQ 07/12 20:10
875F:→ ivan609: 爱将可以蹲吗XDD 07/12 20:10
876F:推 BellamyLee: 永维应该没有C 07/12 20:11
877F:推 philxiao: Boyo今天没球速了 连续上班球速下滑很明显 07/12 20:11
878F:推 s638450: 昨天也是这3个xdddd 07/12 20:11
879F:推 redfish1004: 罗今天哪有甚麽坏球= = 07/12 20:11
880F:→ ivan609: GG.................... 07/12 20:11
881F:→ a1len: GG 07/12 20:11
882F:推 pizip: 水~ 07/12 20:11
883F:→ evo2100: BOYO就是准! 稳! 07/12 20:11
884F:→ ivan609: 又是领先到最後被逆转......... 07/12 20:12
885F:推 thebestlawer: 水啦 07/12 20:12
886F:推 ddtin: 姐姐 偷到10胜了 ! 07/12 20:12
887F:→ NTJL: BOYO节奏明快 07/12 20:12
888F:推 jenchieh5: Boyo真的还不错 07/12 20:12
889F:推 bluemelan: BOYO好稳~~赞! 07/12 20:12
890F:推 hankokku: 义大好惨 都没那种强力的代打 出来的都超烂 07/12 20:12
891F:→ philxiao: 奇怪,Boyo今天速球剩13X,还是能SV 07/12 20:12
892F:推 gogogo123: 没球速还能解决打者 比150 然後失分好吧 07/12 20:12
893F:推 ShockG: BOYO只要控球有准 短局数好像蛮难打的~ 07/12 20:12
894F:推 RELIFE168: LM有让了还能赢 不错 07/12 20:12
895F:推 popbitch: XD 07/12 20:12
896F:→ jenchieh5: 义大只要先发下去就没戏了 07/12 20:12
897F:推 dunhiller: 牛牛又照剧本走.... 07/12 20:12
898F:推 reborn0301: boyo>>>>>>>>>>>>>>>>>>>>>>>>>>>>>>>>>>>>>>>>>>>>lo 07/12 20:12
899F:→ NTJL: BOYO低角度的速球丢得蛮准 靠那进垒点可以吃掉蛮多人了 07/12 20:13
900F:推 jj1004: 罗就是速度慢了 这礼拜投几球了还不如让沈续投 07/12 20:13
901F:推 hu610346: 无法接受红中操姊姊 一百多球硬不换... 07/12 20:13
902F:推 coon182: 红中:怎麽不知不觉就赢了 07/12 20:13
903F:→ ivan609: EDA牛棚到底要怎麽解咧...... 07/12 20:13
904F:推 yyc1217: 只能靠选秀了吧 07/12 20:14
905F:→ jenchieh5: 优质老皮被弄到爆胎 不然不至於这麽惨 07/12 20:14
906F:推 adam7148: 午午输了就是爽 07/12 20:14
907F:→ hu610346: 等一下 操的是姐姐乾我屁事 07/12 20:14
908F:推 hankokku: LO球速没慢好吗 还是都150以上再跑 07/12 20:14
909F:推 scatology: LO明明很多147 148 07/12 20:14
910F:推 gunlinlausuv: 午午开始崩溃 老皮坏了 07/12 20:14
911F:推 Y1999: 牛牛问题:内野 板凳深度 牛棚(上半季被操爆了) 07/12 20:15
912F:→ ivan609: 今天LO有比较慢 今天都在147~152 前几天还可以155连发 07/12 20:15
913F:推 jj1004: 最好没慢...... 07/12 20:15
914F:→ gunlinlausuv: 上半季操坏牛棚还没换到门票 真惨 07/12 20:15
915F:→ Linama: 王溢正也本土十胜了 07/12 20:16
916F:→ jj1004: 重点是上半季淘汰後 还更操 这才扯 07/12 20:16
917F:→ Y1999: 猴子板凳深度真的很夸张(不算投手) 07/12 20:16
918F:→ sorrycar: 打八场 才拿2胜 午午还能忍多久呢 07/12 20:16
919F:→ gunlinlausuv: 午午最引以为傲的教练团大概要拿出来鞭了 07/12 20:16
920F:推 ivan609: 六败里面被逆转败的有四场... 07/12 20:17
921F:推 JinKisaragi: 操爆先发洋投就是真理 反正不是自己人嘛(笑 07/12 20:17
922F:推 derket: 领先->老皮上或失误->被逆转,逼球迷每场只看到五六局就好 07/12 20:18
923F:推 moft: 叶君璋的总教练位子还能做多久呢? 07/12 20:26
924F:推 straight0711: 这胜投数与ERA 比前年阿乐还强运 07/12 20:29
925F:嘘 gogogo123: 楼上 阿乐那一年跟今年能比吗 今年超级打击年耶 07/12 20:35
926F:推 steve8: 先去看他胜投的投球内容吧 败投数少才比较强运 07/12 20:36
927F:推 wb7346: 老叶下台换谁接阿.... 07/12 20:37
928F:推 redfish1004: ERA高是因为有1.2场局数很短掉很多分,平均来看是不错 07/12 20:42
929F:推 yyc1217: 板上很多呀 随便挑一个都比小叶强吧 07/12 20:42
930F:推 alecgood: 兴农到义大近几年都在选状元...可以不要再浪费选秀了吗? 07/12 20:53
931F:推 laihom0808: 昨天跟今天都是投手调度出问题吧,萝卜不知道在急什麽 07/12 20:57